Regional Weather Roundup
Issued by NWS

Home | Current Version | Previous Version | Text Only | Print | Product List | Glossary Off
Versions: 1 2 3 4 5 6 7 8 9 10 11 12 13 14 15 16 17 18 19 20 21 22 23 24 25 26 27 28 29 30 31 32 33 34 35 36 37 38 39 40 41 42 43 44 45 46 47 48 49 50

000
ASUS43 KBIS 240710
RWRND

NORTH DAKOTA REGIONAL WEATHER ROUNDUP
NATIONAL WEATHER SERVICE BISMARCK ND
200 AM CDT MON APR 24 2017

NOTE: "FAIR" INDICATES FEW OR NO CLOUDS BELOW 12,000 FEET WITH NO
SIGNIFICANT WEATHER AND/OR OBSTRUCTIONS TO VISIBILITY.


NDZ001>003-009>011-017-240800-
NORTHWEST NORTH DAKOTA

CITY           SKY/WX    TMP DP  RH WIND       PRES   REMARKS
WILLISTON      CLOUDY    31  28  89 E14       29.81F
MINOT          CLOUDY    31  26  82 E17       29.82F WCI  19
MINOT AFB      CLOUDY    31  24  77 E16G23    29.81F WCI  20
$$

NDZ018>021-031>035-040>046-240800-
SOUTHWEST NORTH DAKOTA

CITY           SKY/WX    TMP DP  RH WIND       PRES   REMARKS
BISMARCK       CLOUDY    33  31  92 E16       29.74F
DICKINSON      FOG       29  28  96 E8        29.75R VSB 1/2
GARRISON         N/A     29  27  92 E17G25    29.77F WCI  17
HETTINGER ARPT MIX PCPN  32  31  96 NE14      29.69F FOG
$$

NDZ004>008-012>016-024-026-027-054-240800-
NORTHEAST NORTH DAKOTA

CITY           SKY/WX    TMP DP  RH WIND       PRES   REMARKS
GRAND FORKS    CLOUDY    34  31  88 NE16      29.89F
GRND FRKS AFB  CLOUDY    32  29  89 E13       29.89F
DEVILS LAKE    CLOUDY    30  26  85 E21G26    29.85F WCI  17
$$

NDZ022-023-025-028>030-036>039-047>053-240800-
SOUTHEAST NORTH DAKOTA

CITY           SKY/WX    TMP DP  RH WIND       PRES   REMARKS
FARGO          CLOUDY    39  33  79 E15       29.78F
JAMESTOWN      CLOUDY    33  30  88 NE17      29.76F
$$




USA.gov is the U.S. government's official web portal to all federal, state and local government web resources and services.